Showing default

AUTCUBE 2, 43681

Orbit data source: Space-Track

AUTCUBE 2, 43681 is a payload satellite in SSO that was launched on Mon, 29 Oct 2018 UTC via an H-IIA 202 launch vehicle from the Tanegashima Space Center (TNSTA). Payload-class satellites include a variety of spacecraft equipped with specific instruments for various scientific and technological missions. These include communications satellites like Starlink; space stations such as the ISS; scientific satellites like the Hubble; Earth observation satellites from companies like Planet Labs, Umbra, and HawkEye 360; GPS; miniature CubeSats for education and research; and military/defense satellites.

Loading next visibility...
Identifier
43681, 2018-084K
Orbit
SSO
Country
Flag of TBDTBD
Related business
Manufacturer
AUT
Mission
Operational Amateur Technology
Bus & Motor
CUBESAT 1U, Unknown motor
Mass
1.6 kg wet, 1.6 kg dry
Launch date (UTC)
2018-10-29 (8 years ago)
Launch vehicle
H-IIA 202
Launch site
Tanegashima Space Center (TNSTA)
Object type
Payload
Rocket body
Debris
Shape & HBR
Box, 0.1 m
Radar Cross Section
0.015 m², Medium (>0.1 m² and < 1m²)

Expand to show TLE details & history
Last TLE update: 3 days ago

TLE from 3 days ago
0 AUTCUBE 2
1 43681U 18084K   26170.28451047  .00002446  00000-0  15440-3 0  9993
2 43681  98.0708  16.5700 0009901  43.1941 317.0062 15.10102080417241
Epoch: 2026-06-19T06:49Z
TLE epoch observation values (Epoch: 2026-06-19T06:49:41.704Z)
Latitude
-0°
Longitude
6.63054°
Altitude
533.941 km
Speed
7.598 km/s
True Right ascension
01h 06m 16s
True Declination
0° 00' 00"
Sunlit
Object was in daylight at epoch
Visualization orbit readout
Latitude
Unknown
Longitude
Unknown
Altitude
Unknown
Speed
Unknown
Apparent Right ascension
Unknown
Apparent Declination
Unknown
Sunlit
N/A
Visualization observer readout
Local Sidereal Time
21:55:36
Azimuth
Unknown
Elevation
Unknown
Doppler factor
Unknown
Orbital elements
Apogee altitude
539.74 km
Perigee altitude
526.054 km
Semi-major axis
6,911.034 km
Eccentricity
0.00099
Inclination
98.0708°
RAAN
16.57°
Arg. of periapsis
43.1941°
True anomaly
316.92876°
Mean anomaly
317.0062°
Eccentric anomaly
316.96749°
Mean motion
3.77771 °/min
Orbital period
95.3 mins
BSTAR
0.0001544
Loading maneuver chart data...
Computing Atmospheric mass density...

Documentation

Showing up to 5 results
|